OBJECT E, 69542

Orbit data source: Space-Track

You're viewing an Uncataloged Satellite

Recently launched and/or uncataloged satellites may have evolving metadata. Metadata may include but not limited to: Owner, Maufacturer, Bus, Motor, and Mission.

OBJECT E, 69542 is a Chinese satellite in SSO that was launched on Mon, 15 Jun 2026 UTC via a LIJIAN-1 launch vehicle from the Jiuquan Satellite Launch Center, China (JSC). Unknown objects in Earth's orbit typically refer to objects detected orbiting the Earth but have not yet been identified or cataloged. These objects could be anything from previously untracked satellites, spent rocket stages, debris from satellite collisions, or even natural meteoroids temporarily captured by Earth's gravity.

Loading next visibility...
Identifier
69542, 2026-134E
Orbit
SSO
Country
Flag of CNCN / PRC
Related business
None
Manufacturer
Unknown
Mission
Operational spacecraft
Bus & Motor
Unknown
Mass
Unknown
Launch date (UTC)
2026-06-15 (1 day ago)
Launch vehicle
LIJIAN-1
Launch site
Jiuquan Satellite Launch Center, China (JSC)
Object type
Unknown
Shape & HBR
Unknown
Radar Cross Section
RCS unknown

Expand to show TLE details & history
Last TLE update: 1 day ago

TLE from 1 day ago
0 OBJECT E
1 69542U 26134E   26166.46458882  .00001398  00000-0  91299-4 0  9993
2 69542  97.7040 236.5599 0014779 282.3968  77.5607 15.09464710    43
Epoch: 2026-06-15T11:09Z
TLE epoch observation values (Epoch: 2026-06-15T11:09:00.474Z)
Latitude
0.00007°
Longitude
165.55732°
Altitude
538.714 km
Speed
7.594 km/s
True Right ascension
15h 46m 14s
True Declination
0° 00' 00"
Sunlit
Object was in full shadow at epoch
Visualization orbit readout
Latitude
Unknown
Longitude
Unknown
Altitude
Unknown
Speed
Unknown
Apparent Right ascension
Unknown
Apparent Declination
Unknown
Sunlit
N/A
Visualization observer readout
Local Sidereal Time
04:50:50
Azimuth
Unknown
Elevation
Unknown
Doppler factor
Unknown
Orbital elements
Apogee altitude
545.044 km
Perigee altitude
524.611 km
Semi-major axis
6,912.964 km
Eccentricity
0.00148
Inclination
97.704°
RAAN
236.5599°
Arg. of periapsis
282.3968°
True anomaly
77.72614°
Mean anomaly
77.5607°
Eccentric anomaly
77.64342°
Mean motion
3.77613 °/min
Orbital period
95.34 mins
BSTAR
0.000091299
Loading maneuver chart data...
Computing Atmospheric mass density...
Loading historical data...
Loading historical data...
Loading historical data...
Loading historical data...
Loading historical data...
Loading historical data...
Loading historical data...

Documentation

Showing up to 5 results
|